SL-16 DEB, 22610

Orbit data source: Space-Track

SL-16 DEB, 22610 is space debris in LEO originally from a launch on Fri, 26 Mar 1993 UTC launched from the Tyuratam Missile And Space Complex (TTMTR). Debris objects in space refer to the collection of defunct objects orbiting the Earth. Examples of debris include non-operational satellites, rocket bodies, and fragments generated from explosions, collisions, or faulty payload assembly.

Loading next visibility...
Identifier
22610, 1993-016U
Orbit
LEO
Country
Flag of CISCIS
Related business
Manufacturer
Unknown
Mission
Spacecraft
Bus & Motor
Unknown
Mass
Unknown
Launch date (UTC)
1993-03-26 (33 years ago)
Launch vehicle
Unknown
Launch site
Tyuratam Missile And Space Complex (TTMTR)
Object type
Payload
Rocket body
Debris
Shape & HBR
Unknown shape, 0.3 m
Radar Cross Section
Small (<0.1 m²)

Expand to show TLE details & history
Last TLE update: 12 hours ago

TLE from 12 hours ago
0 SL-16 DEB
1 22610U 93016U   25290.51473167 -.00000004  00000-0  40062-4 0  9993
2 22610  71.0005 220.5743 0215503 290.9755  66.8404 13.67879927625428
Epoch: 2025-10-17T12:21Z
TLE epoch observation values (Epoch: 2025-10-17T12:21:12.816Z)
Latitude
-0.00011°
Longitude
9.01186°
Altitude
949.874 km
Speed
7.407 km/s
True Right ascension
14h 42m 17s
True Declination
0° 00' 00"
Sunlit
Object was in daylight at epoch
Visualization orbit readout
Latitude
Unknown
Longitude
Unknown
Altitude
Unknown
Speed
Unknown
Apparent Right ascension
Unknown
Apparent Declination
Unknown
Sunlit
N/A
Visualization observer readout
Local Sidereal Time
19:27:28
Azimuth
Unknown
Elevation
Unknown
Doppler factor
Unknown
Orbital elements
Apogee altitude
1,164.274 km
Perigee altitude
846.05 km
Semi-major axis
7,383.299 km
Eccentricity
0.02155
Inclination
71.0005°
RAAN
220.5743°
Arg. of periapsis
290.9755°
True anomaly
69.13456°
Mean anomaly
66.8404°
Eccentric anomaly
67.98511°
Mean motion
3.42111 °/min
Orbital period
105.23 mins
BSTAR
0.000040062
Loading maneuver chart data...
Computing Atmospheric mass density...
Loading historical data...
Loading historical data...
Loading historical data...
Loading historical data...
Loading historical data...
Loading historical data...
Loading historical data...

Documentation

Showing up to 5 results
|